Regional Weather Roundup
Issued by NWS

Home | Current Version | Previous Version | Text Only | Print | Product List | Glossary On
Versions: 1 2 3 4 5 6 7 8 9 10 11 12 13 14 15 16 17 18 19 20 21 22 23 24 25 26 27 28 29 30 31 32 33 34 35 36 37 38 39 40 41 42 43 44 45 46 47 48 49 50
000
ASUS43 KTOP 211508
RWRKS

WEATHER ROUNDUP FOR KANSAS
NATIONAL WEATHER SERVICE GOODLAND KS
1000 AM CDT TUE APR 21 2015

NOTE:  "FAIR" INDICATES FEW OR NO CLOUDS BELOW 12,000 FEET WITH NO
SIGNIFICANT WEATHER AND/OR OBSTRUCTIONS TO VISIBILITY.

KSZ001>006-013>018-027>032-041>047-211600-
NORTHWEST KANSAS

CITY           SKY/WX    TMP DP  RH WIND       PRES   REMARKS
GOODLAND       SUNNY     51  38  60 NW5       29.92F
HAYS           SUNNY     55  32  41 NW13      29.90F
HILL CITY      SUNNY     52  30  43 CALM      29.91F
RUSSELL        SUNNY     57  32  38 W6        29.88S
$$

KSZ061>065-074>080-084>089-211600-
SOUTHWEST KANSAS

CITY           SKY/WX    TMP DP  RH WIND       PRES   REMARKS
DODGE CITY     SUNNY     58  45  62 SW9       29.92F
ELKHART          N/A     57  42  57 W7          N/A
GARDEN CITY    SUNNY     56  41  57 SW7       29.92S
GREAT BEND     SUNNY     52  39  62 NW6       29.91F
LIBERAL        SUNNY     57  45  62 SW7       29.96F
PRATT          SUNNY     59  45  58 SW16      29.92S
$$

KSZ066>073-081>083-090>101-211600-
SOUTHEAST KANSAS

CITY           SKY/WX    TMP DP  RH WIND       PRES   REMARKS
CHANUTE        SUNNY     61  45  55 W12       29.92R
COFFEYVILLE    SUNNY     63  43  48 SW17G24   29.93F
HUTCHINSON     SUNNY     62  44  51 W12       29.91R
MEDICINE LODGE   N/A     62  42  47 SW12      29.92F
NEWTON         SUNNY     55  39  54 W9        29.93S
PARSONS        SUNNY     61  45  55 SW18G24   29.94S
WICHITA INTL   SUNNY     63  43  48 SW16G26   29.90F
WICHITA JABRA  SUNNY     63  42  46 SW16G28   29.90S
WICHITA MCCONL SUNNY     62  44  51 SW22      29.91S
WINFIELD       SUNNY     61  47  59 SW10      29.95S
$$

KSZ007>012-019>026-033>040-048>060-102>105-211600-
NORTHEAST KANSAS

CITY           SKY/WX    TMP DP  RH WIND       PRES   REMARKS
CONCORDIA      SUNNY     54  31  41 W5        29.89S
EMPORIA        SUNNY     58  40  51 SW8       29.89F
LAWRENCE       MOSUNNY   57  35  43 CALM      29.88F
MANHATTAN      SUNNY     54  38  54 SW3       29.89S
MARYSVILLE     SUNNY     54  34  47 SW5       29.87S
OLATHE IND     SUNNY     56  38  50 SW7       29.89S
OLATHE EXE     MOSUNNY   58  34  40 VRB6      29.88S
SALINA         SUNNY     55  35  47 CALM      29.90S
TOPEKA BILLARD MOSUNNY   55  35  47 SW6       29.89F
TOPEKA FORBES  MOSUNNY   57  36  45 CALM      29.89S
$$



USA.gov is the U.S. government's official web portal to all federal, state and local government web resources and services.